Location: Absher
(46.5583°N, 107.9840°W)
Time: 08:29:33
(UTC+00:00)

UKube-1 - Visible Passes

Search period start: 01 April 2023 00:00
Search period end: 11 April 2023 00:00
Orbit: 602 x 609 km, 98.3° (Epoch: 31 March)

Date Brightness Start Highest point End Pass type
(mag) Time Alt. Az. Time Alt. Az. Time Alt. Az.
01 Apr ? 06:36:16 10° NNE 06:36:21 11° NNE 06:36:21 11° NNE visible
02 Apr ? 06:49:06 10° N 06:49:24 12° N 06:49:24 12° N visible
03 Apr ? 07:01:59 10° N 07:02:27 13° N 07:02:27 13° N visible
04 Apr ? 07:14:54 10° N 07:15:29 13° N 07:15:29 13° N visible
05 Apr ? 07:27:52 10° N 07:28:29 13° NNW 07:28:29 13° NNW visible
06 Apr ? 06:04:30 10° NNE 06:04:37 11° NNE 06:04:37 11° NNE visible
06 Apr ? 07:40:55 10° NNW 07:41:29 13° NNW 07:41:29 13° NNW visible
07 Apr ? 06:17:08 10° NNE 06:17:36 13° NNE 06:17:36 13° NNE visible
07 Apr ? 07:54:03 10° NNW 07:54:28 11° NNW 07:54:28 11° NNW visible
08 Apr ? 06:29:48 10° NNE 06:30:34 15° NNE 06:30:34 15° NNE visible
08 Apr ? 08:07:25 10° NNW 08:07:26 10° NNW 08:07:26 10° NNW visible
09 Apr ? 06:42:31 10° N 06:43:31 17° N 06:43:31 17° N visible
10 Apr ? 06:55:16 10° N 06:56:28 18° N 06:56:28 18° N visible
